BHS239 KMCO-MYNN

Flight info

Callsign BHS239
Flight time N/A
Altitude 37000
Route DDANY3 JIPOD DCT JUNIP DCT ZFP BR63V ZQA
Aircraft B737/M-SDE2E3FGHIRWXY/LB1

Departure

Time 2026-05-07 01:57
Airport Orlando International Airport (KMCO)

Arrival

Time N/A
Airport Lynden Pindling International Airport (MYNN)
Time Latitude Longitude Altitude Speed Heading
2026-05-07 01:41 28.42756 -81.30301 93 ft 0 kts 191°
2026-05-07 01:49 28.42771 -81.30297 93 ft 4 kts 191°
2026-05-07 01:49 28.42792 -81.30293 93 ft 4 kts 174°
2026-05-07 01:50 28.42815 -81.30303 93 ft 4 kts 166°
2026-05-07 01:50 28.42835 -81.30306 95 ft 3 kts 176°
2026-05-07 01:50 28.42838 -81.30306 93 ft 0 kts 176°
2026-05-07 01:52 28.42837 -81.30307 93 ft 0 kts 185°
2026-05-07 01:53 28.42819 -81.30330 93 ft 9 kts 244°
2026-05-07 01:53 28.42789 -81.30401 94 ft 11 kts 236°
2026-05-07 01:53 28.42721 -81.30463 96 ft 15 kts 204°
2026-05-07 01:53 28.42648 -81.30457 95 ft 17 kts 156°
2026-05-07 01:54 28.42557 -81.30356 94 ft 21 kts 107°
2026-05-07 01:54 28.42494 -81.30198 93 ft 24 kts 115°
2026-05-07 01:54 28.42447 -81.30012 93 ft 26 kts 79°
2026-05-07 01:54 28.42574 -81.29859 96 ft 28 kts 51°
2026-05-07 01:55 28.42757 -81.29802 96 ft 30 kts 359°
2026-05-07 01:55 28.42964 -81.29812 93 ft 30 kts 359°
2026-05-07 01:55 28.43185 -81.29799 94 ft 34 kts
2026-05-07 01:55 28.43433 -81.29804 94 ft 36 kts 359°
2026-05-07 01:56 28.43555 -81.29731 95 ft 18 kts 91°
2026-05-07 01:56 28.43545 -81.29603 96 ft 14 kts 115°
2026-05-07 01:56 28.43446 -81.29588 97 ft 24 kts 182°
2026-05-07 01:56 28.43038 -81.29595 98 ft 93 kts 184°
2026-05-07 01:57 28.42208 -81.29579 149 ft 136 kts 184°
2026-05-07 01:57 28.41199 -81.29595 465 ft 156 kts 182°
2026-05-07 01:57 28.40073 -81.29610 956 ft 168 kts 178°
2026-05-07 01:57 28.38932 -81.29594 1682 ft 163 kts 178°
2026-05-07 01:58 28.37821 -81.29270 2390 ft 178 kts 144°
2026-05-07 01:58 28.36709 -81.28374 2943 ft 215 kts 146°
2026-05-07 01:58 28.35375 -81.27281 3250 ft 255 kts 143°
2026-05-07 01:58 28.33975 -81.25994 4341 ft 260 kts 132°
2026-05-07 01:59 28.32950 -81.24285 5487 ft 267 kts 125°
2026-05-07 01:59 28.31662 -81.22724 6522 ft 276 kts 135°
2026-05-07 01:59 28.30223 -81.21217 7471 ft 285 kts 136°
2026-05-07 01:59 28.28747 -81.19680 8492 ft 291 kts 136°
2026-05-07 02:00 28.27252 -81.18101 9507 ft 297 kts 135°
2026-05-07 02:00 28.25735 -81.16472 10384 ft 306 kts 135°
2026-05-07 02:00 28.23709 -81.14262 10786 ft 341 kts 134°
2026-05-07 02:00 28.21958 -81.12330 11375 ft 356 kts 134°
2026-05-07 02:01 28.20173 -81.10349 12190 ft 362 kts 134°
2026-05-07 02:01 28.18363 -81.08332 13045 ft 368 kts 134°
2026-05-07 02:01 28.16530 -81.06281 13861 ft 374 kts 133°
2026-05-07 02:01 28.14663 -81.04189 14560 ft 380 kts 134°
2026-05-07 02:02 28.12770 -81.02065 15264 ft 386 kts 134°
2026-05-07 02:02 28.10851 -80.99911 15984 ft 392 kts 134°
2026-05-07 02:02 28.08898 -80.97720 16694 ft 398 kts 134°
2026-05-07 02:02 28.06919 -80.95501 17385 ft 403 kts 134°
2026-05-07 02:03 28.04914 -80.93254 18112 ft 408 kts 135°
2026-05-07 02:03 28.03573 -80.91751 18537 ft 412 kts 135°
2026-05-07 02:03 28.01524 -80.89456 19085 ft 418 kts 135°
2026-05-07 02:03 27.99439 -80.87122 19661 ft 423 kts 135°
2026-05-07 02:04 27.97339 -80.84772 20283 ft 427 kts 135°
2026-05-07 02:04 27.95214 -80.82396 20883 ft 432 kts 135°
2026-05-07 02:04 27.93064 -80.79993 21466 ft 436 kts 135°
2026-05-07 02:04 27.90892 -80.77568 22029 ft 441 kts 135°
2026-05-07 02:05 27.88700 -80.75121 22605 ft 446 kts 135°
2026-05-07 02:05 27.86480 -80.72645 23160 ft 450 kts 135°
2026-05-07 02:05 27.84240 -80.70147 23692 ft 455 kts 135°
2026-05-07 02:05 27.81974 -80.67623 24134 ft 459 kts 136°
2026-05-07 02:06 27.79692 -80.65081 24593 ft 462 kts 136°
2026-05-07 02:06 27.77394 -80.62523 25058 ft 466 kts 136°
2026-05-07 02:06 27.75077 -80.59947 25538 ft 469 kts 136°
2026-05-07 02:06 27.72744 -80.57354 26000 ft 472 kts 136°
2026-05-07 02:07 27.70396 -80.54746 26469 ft 475 kts 136°
2026-05-07 02:07 27.65645 -80.49474 27322 ft 483 kts 136°
2026-05-07 02:07 27.63242 -80.46810 27739 ft 486 kts 136°
2026-05-07 02:08 27.60820 -80.44126 28149 ft 490 kts 136°
2026-05-07 02:08 27.58384 -80.41430 28557 ft 493 kts 136°
2026-05-07 02:08 27.55924 -80.38708 28941 ft 496 kts 136°
2026-05-07 02:08 27.53452 -80.35974 29329 ft 500 kts 136°
2026-05-07 02:09 27.50963 -80.33224 29715 ft 503 kts 136°
2026-05-07 02:09 27.48452 -80.30452 30095 ft 506 kts 136°
2026-05-07 02:09 27.45927 -80.27665 30414 ft 509 kts 136°
2026-05-07 02:09 27.43390 -80.24868 30738 ft 512 kts 137°
2026-05-07 02:10 27.40843 -80.22061 31051 ft 514 kts 137°
2026-05-07 02:10 27.38282 -80.19240 31404 ft 515 kts 137°
2026-05-07 02:10 27.35724 -80.16425 31858 ft 514 kts 136°
2026-05-07 02:10 27.33171 -80.13617 32319 ft 513 kts 137°
2026-05-07 02:11 27.30620 -80.10812 32763 ft 513 kts 137°
2026-05-07 02:11 27.28068 -80.08011 33200 ft 512 kts 137°
2026-05-07 02:11 27.25552 -80.05249 33643 ft 512 kts 137°
2026-05-07 02:11 27.22978 -80.02425 34080 ft 511 kts 137°
2026-05-07 02:12 27.20434 -79.99637 34427 ft 511 kts 137°
2026-05-07 02:12 27.17923 -79.96888 34761 ft 511 kts 137°
2026-05-07 02:12 27.15381 -79.94105 35115 ft 510 kts 137°
2026-05-07 02:12 27.12843 -79.91328 35469 ft 509 kts 137°
2026-05-07 02:13 27.10307 -79.88557 35789 ft 508 kts 137°
2026-05-07 02:13 27.07779 -79.85794 36203 ft 505 kts 137°
2026-05-07 02:13 27.05265 -79.83050 36607 ft 503 kts 137°
2026-05-07 02:13 27.02764 -79.80322 36981 ft 501 kts 137°
2026-05-07 02:14 27.00258 -79.77590 37116 ft 505 kts 137°
2026-05-07 02:14 26.97721 -79.74827 37122 ft 512 kts 137°
2026-05-07 02:14 26.92554 -79.69207 37116 ft 523 kts 137°
2026-05-07 02:15 26.87288 -79.63483 37119 ft 530 kts 137°
2026-05-07 02:15 26.82000 -79.57742 37120 ft 530 kts 137°
2026-05-07 02:16 26.76706 -79.52002 37100 ft 529 kts 137°
2026-05-07 02:16 26.71423 -79.46283 37101 ft 528 kts 137°
2026-05-07 02:17 26.66145 -79.40578 37108 ft 528 kts 137°
2026-05-07 02:17 26.60865 -79.34879 37107 ft 528 kts 137°